This is the latest recevied weather packets stored in our database for station/object AK6MW. If no packets are shown the sender has not sent any weather packets the latest 10 day(s).
| Time | Temp. | Humidity | Pressure | Rain* | Wind** | Luminosity | Snow |
|---|---|---|---|---|---|---|---|
| 1778076529 | 5.56° C | 99% | 1020.2 hPa | - | - | - | - |
| 1778070529 | 6.67° C | 99% | 1019.6 hPa | - | - | - | - |
| 1778068128 | 6.67° C | 99% | 1019.7 hPa | - | - | - | - |
| 1778059751 | 6.11° C | 99% | 1019.1 hPa | - | - | - | - |
| 1778053729 | 5.56° C | 99% | 1018.9 hPa | - | - | - | - |
| 1778052532 | 5.56° C | 99% | 1019.1 hPa | - | - | - | - |
| 1778050730 | 5.56° C | 99% | 1018.6 hPa | - | - | - | - |
| 1778045949 | 4.44° C | 99% | 1018.1 hPa | - | - | - | - |
| 1778045332 | 4.44° C | 99% | 1017.7 hPa | - | - | - | - |
| 1778041129 | 5.56° C | 99% | 1017.3 hPa | - | - | - | - |
| 1778037529 | 6.67° C | 99% | 1016.7 hPa | - | - | - | - |
| 1778035128 | 7.22° C | 99% | 1016.2 hPa | - | - | - | - |
| 1778034529 | 7.22° C | 99% | 1016 hPa | - | - | - | - |
| 1778030331 | 7.22° C | 99% | 1015.6 hPa | - | - | - | - |
| 1778021330 | 6.11° C | 99% | 1015.5 hPa | - | - | - | - |
| 1778019529 | 6.11° C | 99% | 1015.8 hPa | - | - | - | - |
| 1778018929 | 6.11° C | 99% | 1015.5 hPa | - | - | - | - |
| 1778017728 | 6.11° C | 99% | 1015.7 hPa | - | - | - | - |
| 1778013533 | 6.67° C | 99% | 1015.8 hPa | - | - | - | - |
| 1778005128 | 5.56° C | 99% | 1015.3 hPa | - | - | - | - |
| 1778002730 | 5.56° C | 99% | 1015 hPa | - | - | - | - |
| 1778002129 | 5° C | 99% | 1015.2 hPa | - | - | - | - |
| 1778000331 | 5° C | 99% | 1014.9 hPa | - | - | - | - |
| 1777997350 | 4.44° C | 99% | 1014.4 hPa | - | - | - | - |
| 1777996131 | 4.44° C | 99% | 1014.1 hPa | - | - | - | - |
* Rain since midnight (hover to see other rain measurements)
** Current wind speed in m/s (hover to see current wind gust speed)